Location: Newark
(36.7000°N, 45.1333°E)
Time: 13:12:56
(UTC+00:00)

LightSail 2 - Visible Passes

Search period start: 16 January 2021 00:00
Search period end: 26 January 2021 00:00
Orbit: 684 x 714 km, 24.0° (Epoch: 15 January)

Date Brightness Start Highest point End Pass type
(mag) Time Alt. Az. Time Alt. Az. Time Alt. Az.
23 Jan 7.6 03:33:29 10° SSW 03:36:15 15° S 03:39:03 10° SE visible
24 Jan 7.6 02:31:59 10° S 02:33:57 12° SSE 02:35:56 10° SE visible
25 Jan 7.4 03:12:51 10° SSW 03:16:03 17° S 03:19:15 10° SE visible
